20060203,222508,0,32.646500,-117.261700,NaN,20.990,29.910,42.510,  NaN,NaN,0.435, NaN, NaN,24.700, NaN,   NaN,14.40,1014.79,91.10,NaN,5.0,NaN,5.2,NaN,314.5,NaN,10.2,NaN,NaN,0.435,NaN,301.0,NaN,NaN,NaN,2,8.7,222505,   NaN,303.2,     NaN,      NaN,NaN,11.3,NaN, NaN,0.991,NaN,NaN, NaN, NaN
20060203,222538,30,32.647200,-117.262800,NaN,20.990,29.910,42.500,  NaN,NaN,0.435, NaN, NaN,24.600, NaN,   NaN,14.40,1014.89,91.10,NaN,4.0,NaN,6.3,NaN,313.1,NaN,12.2,NaN,NaN,0.435,NaN,302.0,NaN,NaN,NaN,2,8.6,222535,   NaN,304.7,     NaN,      NaN,NaN,11.0,NaN, NaN,0.995,NaN,NaN, NaN, NaN
20060203,222608,60,32.647800,-117.264000,NaN,20.990,29.910,42.510,  NaN,NaN,0.433, NaN, NaN,24.600, NaN,   NaN,14.40,1014.89,90.90,NaN,2.0,NaN,5.5,NaN,307.2,NaN,10.6,NaN,NaN,0.433,NaN,304.0,NaN,NaN,NaN,2,8.6,222605,   NaN,305.6,     NaN,      NaN,NaN,11.4,NaN, NaN,0.994,NaN,NaN, NaN, NaN
20060203,222638,90,32.648500,-117.265200,NaN,20.990,29.910,42.510,  NaN,NaN,0.440, NaN, NaN,24.500, NaN,   NaN,14.40,1014.78,90.90,NaN,2.0,NaN,5.0,NaN,305.5,NaN,9.7,NaN,NaN,0.440,NaN,304.0,NaN,NaN,NaN,2,8.4,222635,   NaN,303.4,     NaN,      NaN,NaN,11.6,NaN, NaN,0.996,NaN,NaN, NaN, NaN
20060203,222708,120,32.649200,-117.266300,NaN,20.990,29.910,42.500,  NaN,NaN,0.437, NaN, NaN,24.600, NaN,   NaN,14.40,1014.71,90.90,NaN,2.0,NaN,5.5,NaN,305.1,NaN,10.7,NaN,NaN,0.437,NaN,302.0,NaN,NaN,NaN,2,8.5,222705,   NaN,303.1,     NaN,      NaN,NaN,11.5,NaN, NaN,0.998,NaN,NaN, NaN, NaN
20060203,222738,150,32.649800,-117.267500,NaN,20.990,29.900,42.500,  NaN,NaN,0.440, NaN, NaN,24.700, NaN,   NaN,14.50,1014.94,91.10,NaN,0.0,NaN,4.6,NaN,300.3,NaN,9.0,NaN,NaN,0.440,NaN,304.0,NaN,NaN,NaN,2,8.7,222735,   NaN,303.9,     NaN,      NaN,NaN,11.5,NaN, NaN,0.994,NaN,NaN, NaN, NaN
20060203,222808,180,32.650500,-117.268800,NaN,20.990,29.900,42.500,  NaN,NaN,0.440, NaN, NaN,24.600, NaN,   NaN,14.50,1014.77,90.80,NaN,1.0,NaN,6.3,NaN,304.0,NaN,12.3,NaN,NaN,0.440,NaN,304.0,NaN,NaN,NaN,2,8.6,222805,   NaN,304.2,     NaN,      NaN,NaN,11.4,NaN, NaN,0.993,NaN,NaN, NaN, NaN
20060203,222838,210,32.651200,-117.270000,NaN,20.990,29.900,42.490,  NaN,NaN,0.452, NaN, NaN,24.600, NaN,   NaN,14.50,1014.82,90.70,NaN,1.0,NaN,6.2,NaN,303.3,NaN,12.0,NaN,NaN,0.452,NaN,304.0,NaN,NaN,NaN,2,8.6,222835,   NaN,303.4,     NaN,      NaN,NaN,11.1,NaN, NaN,1.002,NaN,NaN, NaN, NaN
20060203,222908,240,32.651800,-117.271200,NaN,20.990,29.900,42.490,  NaN,NaN,0.457, NaN, NaN,24.500, NaN,   NaN,14.50,1014.65,90.40,NaN,4.0,NaN,6.1,NaN,318.6,NaN,11.8,NaN,NaN,0.457,NaN,301.0,NaN,NaN,NaN,2,8.4,222905,   NaN,303.0,     NaN,      NaN,NaN,11.4,NaN, NaN,1.003,NaN,NaN, NaN, NaN
20060203,222938,270,32.652500,-117.272300,NaN,20.980,29.900,42.490,  NaN,NaN,0.442, NaN, NaN,24.500, NaN,   NaN,14.60,1014.69,90.60,NaN,0.0,NaN,5.4,NaN,306.4,NaN,10.5,NaN,NaN,0.442,NaN,304.0,NaN,NaN,NaN,2,8.3,222935,   NaN,304.4,     NaN,      NaN,NaN,11.6,NaN, NaN,0.998,NaN,NaN, NaN, NaN
20060203,223008,300,32.653200,-117.273500,NaN,20.980,29.900,42.490,  NaN,NaN,0.448, NaN, NaN,24.600, NaN,   NaN,14.60,1014.72,90.30,NaN,0.0,NaN,5.9,NaN,299.3,NaN,11.5,NaN,NaN,0.448,NaN,304.0,NaN,NaN,NaN,2,8.4,223005,   NaN,308.6,     NaN,      NaN,NaN,11.2,NaN, NaN,1.002,NaN,NaN, NaN, NaN
20060203,223038,330,32.654000,-117.274300,NaN,20.980,29.900,42.490,  NaN,NaN,0.441, NaN, NaN,24.600, NaN,   NaN,14.60,1014.76,90.30,NaN,348.0,NaN,5.6,NaN,305.7,NaN,11.0,NaN,NaN,0.441,NaN,326.0,NaN,NaN,NaN,2,8.3,223035,   NaN,325.0,     NaN,      NaN,NaN,11.6,NaN, NaN,0.998,NaN,NaN, NaN, NaN
20060203,223108,360,32.655000,-117.275200,NaN,20.980,29.900,42.490,  NaN,NaN,0.442, NaN, NaN,24.600, NaN,   NaN,14.60,1014.73,90.20,NaN,352.0,NaN,5.4,NaN,309.8,NaN,10.5,NaN,NaN,0.442,NaN,324.0,NaN,NaN,NaN,2,8.4,223105,   NaN,322.1,     NaN,      NaN,NaN,11.5,NaN, NaN,1.000,NaN,NaN, NaN, NaN
20060203,223138,390,32.655800,-117.276000,NaN,20.980,29.900,42.490,  NaN,NaN,0.458, NaN, NaN,24.600, NaN,   NaN,14.50,1014.74,89.90,NaN,346.0,NaN,6.3,NaN,307.6,NaN,12.2,NaN,NaN,0.458,NaN,327.0,NaN,NaN,NaN,2,8.4,223135,   NaN,330.1,     NaN,      NaN,NaN,11.6,NaN, NaN,1.003,NaN,NaN, NaN, NaN
20060203,223208,420,32.657000,-117.276700,NaN,20.980,29.900,42.490,  NaN,NaN,0.448, NaN, NaN,24.600, NaN,   NaN,14.50,1014.78,89.90,NaN,343.0,NaN,5.7,NaN,307.5,NaN,11.1,NaN,NaN,0.448,NaN,334.0,NaN,NaN,NaN,2,8.5,223205,   NaN,331.9,     NaN,      NaN,NaN,11.3,NaN, NaN,1.001,NaN,NaN, NaN, NaN
20060203,223238,450,32.658000,-117.277300,NaN,20.980,29.890,42.480,  NaN,NaN,0.445, NaN, NaN,24.600, NaN,   NaN,14.50,1014.83,89.90,NaN,345.0,NaN,5.8,NaN,306.1,NaN,11.3,NaN,NaN,0.445,NaN,332.0,NaN,NaN,NaN,2,8.6,223235,   NaN,331.3,     NaN,      NaN,NaN,11.4,NaN, NaN,1.001,NaN,NaN, NaN, NaN
20060203,223308,480,32.659000,-117.278000,NaN,20.980,29.890,42.480,  NaN,NaN,0.445, NaN, NaN,24.600, NaN,   NaN,14.50,1014.83,89.90,NaN,347.0,NaN,4.6,NaN,304.1,NaN,9.0,NaN,NaN,0.445,NaN,330.0,NaN,NaN,NaN,2,8.5,223305,   NaN,329.5,     NaN,      NaN,NaN,11.2,NaN, NaN,1.002,NaN,NaN, NaN, NaN
20060203,223338,510,32.660200,-117.278700,NaN,20.970,29.900,42.480,  NaN,NaN,0.446, NaN, NaN,24.600, NaN,   NaN,14.50,1014.82,89.90,NaN,345.0,NaN,5.5,NaN,304.7,NaN,10.8,NaN,NaN,0.446,NaN,330.0,NaN,NaN,NaN,2,8.5,223335,   NaN,329.9,     NaN,      NaN,NaN,11.4,NaN, NaN,1.003,NaN,NaN, NaN, NaN
20060203,223408,540,32.661200,-117.279300,NaN,20.980,29.900,42.490,  NaN,NaN,0.448, NaN, NaN,24.600, NaN,   NaN,14.60,1014.92,90.20,NaN,346.0,NaN,6.3,NaN,302.8,NaN,12.2,NaN,NaN,0.448,NaN,333.0,NaN,NaN,NaN,2,8.6,223405,   NaN,330.2,     NaN,      NaN,NaN,11.5,NaN, NaN,1.001,NaN,NaN, NaN, NaN
20060203,223438,570,32.662200,-117.280000,NaN,20.970,29.900,42.480,  NaN,NaN,0.455, NaN, NaN,24.600, NaN,   NaN,14.60,1014.85,89.80,NaN,347.0,NaN,6.1,NaN,305.8,NaN,11.8,NaN,NaN,0.455,NaN,331.0,NaN,NaN,NaN,2,8.4,223435,   NaN,330.0,     NaN,      NaN,NaN,11.6,NaN, NaN,1.003,NaN,NaN, NaN, NaN
20060203,223508,600,32.663200,-117.280700,NaN,20.970,29.900,42.480,  NaN,NaN,0.463, NaN, NaN,24.700, NaN,   NaN,14.50,1014.80,89.60,NaN,343.0,NaN,4.5,NaN,300.2,NaN,8.8,NaN,NaN,0.463,NaN,331.0,NaN,NaN,NaN,2,8.4,223505,   NaN,329.6,     NaN,      NaN,NaN,11.0,NaN, NaN,1.003,NaN,NaN, NaN, NaN
20060203,223538,630,32.664200,-117.281300,NaN,20.970,29.900,42.480,  NaN,NaN,0.449, NaN, NaN,24.700, NaN,   NaN,14.60,1014.80,90.20,NaN,351.0,NaN,5.6,NaN,308.8,NaN,10.9,NaN,NaN,0.449,NaN,329.0,NaN,NaN,NaN,2,8.6,223535,   NaN,330.7,     NaN,      NaN,NaN,11.6,NaN, NaN,1.005,NaN,NaN, NaN, NaN
20060203,223608,660,32.665300,-117.282000,NaN,20.970,29.890,42.480,  NaN,NaN,0.453, NaN, NaN,24.600, NaN,   NaN,14.60,1014.83,89.80,NaN,349.0,NaN,5.2,NaN,313.7,NaN,10.1,NaN,NaN,0.453,NaN,330.0,NaN,NaN,NaN,2,8.4,223605,   NaN,330.1,     NaN,      NaN,NaN,11.6,NaN, NaN,1.008,NaN,NaN, NaN, NaN
20060203,223638,690,32.666300,-117.282700,NaN,20.970,29.890,42.480,  NaN,NaN,0.455, NaN, NaN,24.600, NaN,   NaN,14.60,1014.86,89.70,NaN,348.0,NaN,5.4,NaN,308.8,NaN,10.4,NaN,NaN,0.455,NaN,332.0,NaN,NaN,NaN,2,8.4,223635,   NaN,329.9,     NaN,      NaN,NaN,11.4,NaN, NaN,1.004,NaN,NaN, NaN, NaN
20060203,223708,720,32.667300,-117.283300,NaN,20.970,29.900,42.480,  NaN,NaN,0.461, NaN, NaN,24.600, NaN,   NaN,14.60,1014.88,89.60,NaN,351.0,NaN,5.3,NaN,313.8,NaN,10.3,NaN,NaN,0.461,NaN,330.0,NaN,NaN,NaN,2,8.4,223705,   NaN,330.1,     NaN,      NaN,NaN,11.2,NaN, NaN,1.008,NaN,NaN, NaN, NaN
20060203,223738,750,32.668500,-117.284000,NaN,20.970,29.900,42.480,  NaN,NaN,0.454, NaN, NaN,24.600, NaN,   NaN,14.60,1014.88,89.50,NaN,347.0,NaN,5.8,NaN,309.1,NaN,11.3,NaN,NaN,0.454,NaN,332.0,NaN,NaN,NaN,2,8.4,223735,   NaN,330.1,     NaN,      NaN,NaN,11.3,NaN, NaN,1.004,NaN,NaN, NaN, NaN
20060203,223808,780,32.669500,-117.284700,NaN,20.970,29.900,42.480,  NaN,NaN,0.449, NaN, NaN,24.600, NaN,   NaN,14.60,1014.70,89.50,NaN,349.0,NaN,5.5,NaN,314.9,NaN,10.7,NaN,NaN,0.449,NaN,331.0,NaN,NaN,NaN,2,8.5,223805,   NaN,330.9,     NaN,      NaN,NaN,11.7,NaN, NaN,1.007,NaN,NaN, NaN, NaN
20060203,223838,810,32.670500,-117.285300,NaN,20.970,29.900,42.480,  NaN,NaN,0.455, NaN, NaN,24.600, NaN,   NaN,14.60,1014.72,89.40,NaN,352.0,NaN,4.7,NaN,314.3,NaN,9.1,NaN,NaN,0.455,NaN,331.0,NaN,NaN,NaN,2,8.6,223835,   NaN,329.8,     NaN,      NaN,NaN,11.4,NaN, NaN,1.008,NaN,NaN, NaN, NaN
20060203,223908,840,32.671700,-117.286000,NaN,20.970,29.900,42.480,  NaN,NaN,0.463, NaN, NaN,24.600, NaN,   NaN,14.60,1014.90,89.50,NaN,344.0,NaN,5.6,NaN,303.3,NaN,11.0,NaN,NaN,0.463,NaN,333.0,NaN,NaN,NaN,2,8.7,223905,   NaN,328.3,     NaN,      NaN,NaN,11.5,NaN, NaN,1.004,NaN,NaN, NaN, NaN
20060203,223938,870,32.672700,-117.286800,NaN,20.970,29.900,42.470,  NaN,NaN,0.455, NaN, NaN,24.600, NaN,   NaN,14.60,1014.97,89.40,NaN,350.0,NaN,5.4,NaN,308.1,NaN,10.5,NaN,NaN,0.455,NaN,329.0,NaN,NaN,NaN,2,8.8,223935,   NaN,328.5,     NaN,      NaN,NaN,11.5,NaN, NaN,1.008,NaN,NaN, NaN, NaN
20060203,224008,900,32.673700,-117.287500,NaN,20.970,29.890,42.470,  NaN,NaN,0.459, NaN, NaN,24.500, NaN,   NaN,14.60,1015.03,89.50,NaN,346.0,NaN,4.7,NaN,301.8,NaN,9.1,NaN,NaN,0.459,NaN,332.0,NaN,NaN,NaN,2,8.7,224005,   NaN,329.3,     NaN,      NaN,NaN,11.8,NaN, NaN,1.008,NaN,NaN, NaN, NaN
20060203,224038,930,32.674800,-117.288200,NaN,20.970,29.890,42.470,  NaN,NaN,0.457, NaN, NaN,24.500, NaN,   NaN,14.60,1014.87,89.70,NaN,350.0,NaN,5.3,NaN,312.4,NaN,10.3,NaN,NaN,0.457,NaN,332.0,NaN,NaN,NaN,2,8.8,224035,   NaN,331.5,     NaN,      NaN,NaN,11.8,NaN, NaN,1.008,NaN,NaN, NaN, NaN
20060203,224108,960,32.675800,-117.288800,NaN,20.970,29.900,42.470,  NaN,NaN,0.454, NaN, NaN,24.500, NaN,   NaN,14.80,1015.13,89.30,NaN,343.0,NaN,5.8,NaN,300.0,NaN,11.2,NaN,NaN,0.454,NaN,336.0,NaN,NaN,NaN,2,8.9,224105,   NaN,330.9,     NaN,      NaN,NaN,11.8,NaN, NaN,1.008,NaN,NaN, NaN, NaN
20060203,224138,990,32.677000,-117.289500,NaN,20.970,29.900,42.470,  NaN,NaN,0.461, NaN, NaN,24.500, NaN,   NaN,14.70,1014.93,88.90,NaN,348.0,NaN,5.8,NaN,306.8,NaN,11.2,NaN,NaN,0.461,NaN,331.0,NaN,NaN,NaN,2,8.8,224135,   NaN,329.9,     NaN,      NaN,NaN,12.0,NaN, NaN,1.012,NaN,NaN, NaN, NaN
20060203,224208,1020,32.678000,-117.290200,NaN,20.970,29.890,42.470,  NaN,NaN,0.457, NaN, NaN,24.500, NaN,   NaN,14.60,1014.93,89.00,NaN,347.0,NaN,5.0,NaN,306.0,NaN,9.6,NaN,NaN,0.457,NaN,332.0,NaN,NaN,NaN,2,8.9,224205,   NaN,330.4,     NaN,      NaN,NaN,11.7,NaN, NaN,1.009,NaN,NaN, NaN, NaN
20060203,224238,1050,32.679200,-117.291000,NaN,20.970,29.890,42.470,  NaN,NaN,0.466, NaN, NaN,24.500, NaN,   NaN,14.60,1014.92,89.20,NaN,351.0,NaN,4.5,NaN,309.5,NaN,8.7,NaN,NaN,0.466,NaN,331.0,NaN,NaN,NaN,2,8.9,224235,   NaN,330.0,     NaN,      NaN,NaN,11.4,NaN, NaN,1.012,NaN,NaN, NaN, NaN
20060203,224308,1080,32.680200,-117.291700,NaN,20.970,29.890,42.470,  NaN,NaN,0.462, NaN, NaN,24.500, NaN,   NaN,14.60,1014.88,89.20,NaN,349.0,NaN,5.0,NaN,311.2,NaN,9.8,NaN,NaN,0.462,NaN,330.0,NaN,NaN,NaN,2,8.8,224305,   NaN,330.1,     NaN,      NaN,NaN,11.6,NaN, NaN,1.012,NaN,NaN, NaN, NaN
20060203,224338,1110,32.681300,-117.292300,NaN,20.960,29.900,42.470,  NaN,NaN,0.463, NaN, NaN,24.500, NaN,   NaN,14.60,1014.82,89.00,NaN,348.0,NaN,5.3,NaN,312.0,NaN,10.4,NaN,NaN,0.463,NaN,331.0,NaN,NaN,NaN,2,8.9,224335,   NaN,330.2,     NaN,      NaN,NaN,11.9,NaN, NaN,1.012,NaN,NaN, NaN, NaN
20060203,224408,1140,32.682300,-117.293000,NaN,20.960,29.900,42.470,  NaN,NaN,0.459, NaN, NaN,24.500, NaN,   NaN,14.60,1015.01,88.90,NaN,344.0,NaN,5.6,NaN,305.4,NaN,11.0,NaN,NaN,0.459,NaN,331.0,NaN,NaN,NaN,2,8.9,224405,   NaN,330.6,     NaN,      NaN,NaN,11.4,NaN, NaN,1.012,NaN,NaN, NaN, NaN
20060203,224438,1170,32.683500,-117.293800,NaN,20.960,29.900,42.470,  NaN,NaN,0.459, NaN, NaN,24.600, NaN,   NaN,14.50,1014.92,88.90,NaN,345.0,NaN,5.2,NaN,305.3,NaN,10.0,NaN,NaN,0.459,NaN,331.0,NaN,NaN,NaN,2,9.1,224435,   NaN,330.4,     NaN,      NaN,NaN,12.0,NaN, NaN,1.012,NaN,NaN, NaN, NaN
20060203,224508,1200,32.684700,-117.294500,NaN,20.960,29.900,42.470,  NaN,NaN,0.457, NaN, NaN,24.500, NaN,   NaN,14.60,1015.06,89.40,NaN,347.0,NaN,4.2,NaN,302.9,NaN,8.1,NaN,NaN,0.457,NaN,332.0,NaN,NaN,NaN,2,9.0,224505,   NaN,330.9,     NaN,      NaN,NaN,11.8,NaN, NaN,1.012,NaN,NaN, NaN, NaN
20060203,224538,1230,32.685700,-117.295200,NaN,20.960,29.900,42.470,  NaN,NaN,0.465, NaN, NaN,24.400, NaN,   NaN,14.60,1015.07,89.30,NaN,347.0,NaN,4.7,NaN,305.4,NaN,9.1,NaN,NaN,0.465,NaN,332.0,NaN,NaN,NaN,2,9.0,224535,   NaN,329.4,     NaN,      NaN,NaN,12.0,NaN, NaN,1.011,NaN,NaN, NaN, NaN
20060203,224608,1260,32.686800,-117.295800,NaN,20.960,29.890,42.470,  NaN,NaN,0.463, NaN, NaN,24.500, NaN,   NaN,14.50,1015.00,88.90,NaN,347.0,NaN,5.5,NaN,301.9,NaN,10.7,NaN,NaN,0.463,NaN,330.0,NaN,NaN,NaN,2,9.1,224605,   NaN,330.2,     NaN,      NaN,NaN,11.6,NaN, NaN,1.015,NaN,NaN, NaN, NaN
20060203,224638,1290,32.687800,-117.296700,NaN,20.960,29.890,42.470,  NaN,NaN,0.463, NaN, NaN,24.500, NaN,   NaN,14.50,1014.96,88.80,NaN,349.0,NaN,5.2,NaN,306.9,NaN,10.1,NaN,NaN,0.463,NaN,329.0,NaN,NaN,NaN,2,9.0,224635,   NaN,330.1,     NaN,      NaN,NaN,11.5,NaN, NaN,1.012,NaN,NaN, NaN, NaN
20060203,224708,1320,32.689000,-117.297300,NaN,20.960,29.890,42.470,  NaN,NaN,0.461, NaN, NaN,24.400, NaN,   NaN,14.50,1015.00,89.00,NaN,347.0,NaN,5.2,NaN,305.4,NaN,10.1,NaN,NaN,0.461,NaN,332.0,NaN,NaN,NaN,2,9.1,224705,   NaN,330.0,     NaN,      NaN,NaN,11.4,NaN, NaN,1.013,NaN,NaN, NaN, NaN
20060203,224738,1350,32.690200,-117.298000,NaN,20.960,29.890,42.470,  NaN,NaN,0.463, NaN, NaN,24.500, NaN,   NaN,14.60,1015.03,89.40,NaN,348.0,NaN,3.9,NaN,313.2,NaN,7.5,NaN,NaN,0.463,NaN,333.0,NaN,NaN,NaN,2,9.1,224735,   NaN,330.7,     NaN,      NaN,NaN,11.8,NaN, NaN,1.012,NaN,NaN, NaN, NaN
20060203,224808,1380,32.691300,-117.298800,NaN,20.960,29.900,42.470,  NaN,NaN,0.462, NaN, NaN,24.500, NaN,   NaN,14.60,1014.99,89.30,NaN,349.0,NaN,4.7,NaN,314.1,NaN,9.2,NaN,NaN,0.462,NaN,334.0,NaN,NaN,NaN,2,9.1,224805,   NaN,329.8,     NaN,      NaN,NaN,11.9,NaN, NaN,1.012,NaN,NaN, NaN, NaN
20060203,224838,1410,32.692300,-117.299500,NaN,20.960,29.890,42.470,  NaN,NaN,0.463, NaN, NaN,24.500, NaN,   NaN,14.60,1014.95,89.00,NaN,346.0,NaN,5.2,NaN,310.9,NaN,10.1,NaN,NaN,0.463,NaN,332.0,NaN,NaN,NaN,2,9.0,224835,   NaN,329.7,     NaN,      NaN,NaN,11.6,NaN, NaN,1.012,NaN,NaN, NaN, NaN
20060203,224908,1440,32.693500,-117.300200,NaN,20.950,29.900,42.470,  NaN,NaN,0.457, NaN, NaN,24.400, NaN,   NaN,14.60,1014.99,88.90,NaN,347.0,NaN,4.8,NaN,304.6,NaN,9.3,NaN,NaN,0.457,NaN,331.0,NaN,NaN,NaN,2,9.0,224905,   NaN,330.1,     NaN,      NaN,NaN,11.7,NaN, NaN,1.012,NaN,NaN, NaN, NaN
20060203,224938,1470,32.694500,-117.301000,NaN,20.960,29.900,42.470,  NaN,NaN,0.464, NaN, NaN,24.400, NaN,   NaN,14.60,1015.04,89.00,NaN,350.0,NaN,5.0,NaN,314.6,NaN,9.8,NaN,NaN,0.464,NaN,331.0,NaN,NaN,NaN,2,9.1,224935,   NaN,330.1,     NaN,      NaN,NaN,12.0,NaN, NaN,1.013,NaN,NaN, NaN, NaN
20060203,225008,1500,32.695700,-117.301700,NaN,20.950,29.900,42.470,  NaN,NaN,0.469, NaN, NaN,24.400, NaN,   NaN,14.60,1015.14,89.00,NaN,350.0,NaN,4.3,NaN,314.6,NaN,8.4,NaN,NaN,0.469,NaN,331.0,NaN,NaN,NaN,2,9.0,225005,   NaN,329.2,     NaN,      NaN,NaN,11.8,NaN, NaN,1.017,NaN,NaN, NaN, NaN
20060203,225038,1530,32.696800,-117.302300,NaN,20.950,29.900,42.470,  NaN,NaN,0.473, NaN, NaN,24.400, NaN,   NaN,14.60,1015.20,88.80,NaN,348.0,NaN,4.7,NaN,305.7,NaN,9.1,NaN,NaN,0.473,NaN,331.0,NaN,NaN,NaN,2,9.0,225035,   NaN,329.8,     NaN,      NaN,NaN,11.6,NaN, NaN,1.017,NaN,NaN, NaN, NaN
20060203,225108,1560,32.697800,-117.303200,NaN,20.950,29.900,42.470,  NaN,NaN,0.478, NaN, NaN,24.400, NaN,   NaN,14.50,1015.07,88.80,NaN,347.0,NaN,3.8,NaN,303.3,NaN,7.3,NaN,NaN,0.478,NaN,333.0,NaN,NaN,NaN,2,9.1,225105,   NaN,330.3,     NaN,      NaN,NaN,12.0,NaN, NaN,1.021,NaN,NaN, NaN, NaN
20060203,225138,1590,32.699000,-117.303800,NaN,20.950,29.900,42.470,  NaN,NaN,0.472, NaN, NaN,24.400, NaN,   NaN,14.60,1015.11,89.40,NaN,338.0,NaN,4.5,NaN,289.7,NaN,8.8,NaN,NaN,0.472,NaN,334.0,NaN,NaN,NaN,2,9.1,225135,   NaN,330.4,     NaN,      NaN,NaN,11.6,NaN, NaN,1.014,NaN,NaN, NaN, NaN
20060203,225208,1620,32.700200,-117.304500,NaN,20.950,29.900,42.460,  NaN,NaN,0.472, NaN, NaN,24.400, NaN,   NaN,14.50,1014.94,89.30,NaN,343.0,NaN,5.2,NaN,294.1,NaN,10.1,NaN,NaN,0.472,NaN,330.0,NaN,NaN,NaN,2,9.2,225205,   NaN,330.3,     NaN,      NaN,NaN,11.8,NaN, NaN,1.017,NaN,NaN, NaN, NaN
20060203,225238,1650,32.701300,-117.305200,NaN,20.960,29.900,42.470,  NaN,NaN,0.468, NaN, NaN,24.400, NaN,   NaN,14.50,1015.11,89.50,NaN,337.0,NaN,5.4,NaN,285.8,NaN,10.5,NaN,NaN,0.468,NaN,332.0,NaN,NaN,NaN,2,9.1,225235,   NaN,328.3,     NaN,      NaN,NaN,11.3,NaN, NaN,1.016,NaN,NaN, NaN, NaN
20060203,225308,1680,32.702300,-117.306000,NaN,20.950,29.900,42.460,  NaN,NaN,0.468, NaN, NaN,24.400, NaN,   NaN,14.50,1015.07,89.80,NaN,343.0,NaN,4.9,NaN,300.5,NaN,9.5,NaN,NaN,0.468,NaN,330.0,NaN,NaN,NaN,2,9.0,225305,   NaN,329.9,     NaN,      NaN,NaN,11.5,NaN, NaN,1.017,NaN,NaN, NaN, NaN
20060203,225338,1710,32.703500,-117.306700,NaN,20.950,29.900,42.460,  NaN,NaN,0.467, NaN, NaN,24.400, NaN,   NaN,14.40,1015.06,89.80,NaN,340.0,NaN,4.5,NaN,294.1,NaN,8.7,NaN,NaN,0.467,NaN,332.0,NaN,NaN,NaN,2,9.0,225335,   NaN,330.3,     NaN,      NaN,NaN,11.7,NaN, NaN,1.016,NaN,NaN, NaN, NaN
20060203,225408,1740,32.704500,-117.307500,NaN,20.950,29.900,42.460,  NaN,NaN,0.468, NaN, NaN,24.300, NaN,   NaN,14.40,1015.11,89.80,NaN,344.0,NaN,4.9,NaN,292.9,NaN,9.5,NaN,NaN,0.468,NaN,332.0,NaN,NaN,NaN,2,9.2,225405,   NaN,330.4,     NaN,      NaN,NaN,11.7,NaN, NaN,1.016,NaN,NaN, NaN, NaN
20060203,225438,1770,32.705700,-117.308200,NaN,20.960,29.900,42.460,  NaN,NaN,0.471, NaN, NaN,24.400, NaN,   NaN,14.40,1015.14,89.90,NaN,346.0,NaN,4.9,NaN,303.0,NaN,9.5,NaN,NaN,0.471,NaN,331.0,NaN,NaN,NaN,2,9.1,225435,   NaN,330.2,     NaN,      NaN,NaN,11.6,NaN, NaN,1.017,NaN,NaN, NaN, NaN
20060203,225508,1800,32.706800,-117.308800,NaN,20.960,29.890,42.460,  NaN,NaN,0.477, NaN, NaN,24.300, NaN,   NaN,14.40,1015.12,89.90,NaN,341.0,NaN,4.1,NaN,298.5,NaN,8.0,NaN,NaN,0.477,NaN,332.0,NaN,NaN,NaN,2,8.8,225505,   NaN,329.9,     NaN,      NaN,NaN,11.9,NaN, NaN,1.020,NaN,NaN, NaN, NaN
20060203,225538,1830,32.707800,-117.309500,NaN,20.960,29.890,42.460,  NaN,NaN,0.486, NaN, NaN,24.200, NaN,   NaN,14.30,1015.15,89.80,NaN,348.0,NaN,4.6,NaN,310.2,NaN,8.9,NaN,NaN,0.486,NaN,331.0,NaN,NaN,NaN,2,8.7,225535,   NaN,329.5,     NaN,      NaN,NaN,12.0,NaN, NaN,1.026,NaN,NaN, NaN, NaN
20060203,225608,1860,32.709000,-117.310300,NaN,20.950,29.900,42.460,  NaN,NaN,0.484, NaN, NaN,24.200, NaN,   NaN,14.30,1015.24,89.70,NaN,344.0,NaN,4.7,NaN,295.5,NaN,9.1,NaN,NaN,0.484,NaN,331.0,NaN,NaN,NaN,2,9.0,225605,   NaN,329.3,     NaN,      NaN,NaN,11.4,NaN, NaN,1.025,NaN,NaN, NaN, NaN
20060203,225638,1890,32.710000,-117.311000,NaN,20.960,29.890,42.460,  NaN,NaN,0.475, NaN, NaN,24.200, NaN,   NaN,14.30,1015.14,90.10,NaN,340.0,NaN,5.2,NaN,290.6,NaN,10.0,NaN,NaN,0.475,NaN,331.0,NaN,NaN,NaN,2,9.0,225635,   NaN,330.8,     NaN,      NaN,NaN,11.4,NaN, NaN,1.019,NaN,NaN, NaN, NaN
20060203,225708,1920,32.711200,-117.311700,NaN,20.950,29.890,42.460,  NaN,NaN,0.471, NaN, NaN,24.300, NaN,   NaN,14.20,1015.20,90.10,NaN,348.0,NaN,5.4,NaN,301.2,NaN,10.4,NaN,NaN,0.471,NaN,332.0,NaN,NaN,NaN,2,8.9,225705,   NaN,330.2,     NaN,      NaN,NaN,11.6,NaN, NaN,1.024,NaN,NaN, NaN, NaN
20060203,225738,1950,32.712200,-117.312500,NaN,20.950,29.890,42.460,  NaN,NaN,0.473, NaN, NaN,24.200, NaN,   NaN,14.30,1015.12,90.10,NaN,344.0,NaN,4.7,NaN,294.9,NaN,9.2,NaN,NaN,0.473,NaN,332.0,NaN,NaN,NaN,2,9.0,225735,   NaN,330.7,     NaN,      NaN,NaN,11.8,NaN, NaN,1.021,NaN,NaN, NaN, NaN
20060203,225808,1980,32.713300,-117.313000,NaN,20.950,29.890,42.450,  NaN,NaN,0.477, NaN, NaN,24.200, NaN,   NaN,14.10,1015.07,89.90,NaN,333.0,NaN,4.5,NaN,294.9,NaN,8.7,NaN,NaN,0.477,NaN,343.0,NaN,NaN,NaN,2,8.9,225805,   NaN,348.2,     NaN,      NaN,NaN,11.8,NaN, NaN,1.022,NaN,NaN, NaN, NaN
20060203,225838,2010,32.714500,-117.313200,NaN,20.950,29.900,42.460,  NaN,NaN,0.474, NaN, NaN,24.300, NaN,   NaN,14.30,1015.08,90.30,NaN,326.0,NaN,4.1,NaN,296.8,NaN,8.0,NaN,NaN,0.474,NaN,359.0,NaN,NaN,NaN,2,8.8,225835,   NaN,2.7,     NaN,      NaN,NaN,11.6,NaN, NaN,1.022,NaN,NaN, NaN, NaN
20060203,225908,2040,32.715800,-117.313000,NaN,20.950,29.900,42.460,  NaN,NaN,0.487, NaN, NaN,24.400, NaN,   NaN,14.30,1015.09,90.30,NaN,328.0,NaN,4.4,NaN,296.0,NaN,8.6,NaN,NaN,0.487,NaN,5.0,NaN,NaN,NaN,2,8.9,225905,   NaN,0.7,     NaN,      NaN,NaN,11.5,NaN, NaN,1.024,NaN,NaN, NaN, NaN
20060203,225938,2070,32.717000,-117.313000,NaN,20.950,29.900,42.460,  NaN,NaN,0.486, NaN, NaN,24.300, NaN,   NaN,14.20,1014.99,90.60,NaN,327.0,NaN,4.1,NaN,292.0,NaN,7.9,NaN,NaN,0.486,NaN,2.0,NaN,NaN,NaN,2,8.9,225935,   NaN,0.6,     NaN,      NaN,NaN,11.5,NaN, NaN,1.024,NaN,NaN, NaN, NaN
20060203,230008,2100,32.718300,-117.313000,NaN,20.940,29.900,42.460,  NaN,NaN,0.483, NaN, NaN,24.400, NaN,   NaN,14.30,1015.19,90.40,NaN,325.0,NaN,5.0,NaN,289.7,NaN,9.7,NaN,NaN,0.483,NaN,1.0,NaN,NaN,NaN,2,9.1,230005,   NaN,359.3,     NaN,      NaN,NaN,11.5,NaN, NaN,1.026,NaN,NaN, NaN, NaN
20060203,230038,2130,32.719700,-117.313000,NaN,20.940,29.900,42.450,  NaN,NaN,0.486, NaN, NaN,24.400, NaN,   NaN,14.30,1015.12,90.40,NaN,324.0,NaN,4.8,NaN,282.7,NaN,9.2,NaN,NaN,0.486,NaN,1.0,NaN,NaN,NaN,2,9.0,230035,   NaN,359.8,     NaN,      NaN,NaN,11.3,NaN, NaN,1.025,NaN,NaN, NaN, NaN
20060203,230108,2160,32.720800,-117.313000,NaN,20.930,29.910,42.450,  NaN,NaN,0.486, NaN, NaN,24.400, NaN,   NaN,14.10,1015.07,90.40,NaN,326.0,NaN,3.8,NaN,280.5,NaN,7.3,NaN,NaN,0.486,NaN,2.0,NaN,NaN,NaN,2,9.0,230105,   NaN,0.5,     NaN,      NaN,NaN,11.9,NaN, NaN,1.028,NaN,NaN, NaN, NaN
20060203,230138,2190,32.722200,-117.312800,NaN,20.940,29.900,42.460,  NaN,NaN,0.493, NaN, NaN,24.400, NaN,   NaN,14.10,1015.12,90.80,NaN,328.0,NaN,4.3,NaN,287.1,NaN,8.4,NaN,NaN,0.493,NaN,2.0,NaN,NaN,NaN,2,9.1,230135,   NaN,0.6,     NaN,      NaN,NaN,11.7,NaN, NaN,1.026,NaN,NaN, NaN, NaN
20060203,230208,2220,32.723300,-117.312800,NaN,20.940,29.900,42.460,  NaN,NaN,0.487, NaN, NaN,24.400, NaN,   NaN,14.10,1015.14,90.80,NaN,334.0,NaN,3.5,NaN,290.0,NaN,6.8,NaN,NaN,0.487,NaN,1.0,NaN,NaN,NaN,2,9.1,230205,   NaN,359.6,     NaN,      NaN,NaN,11.7,NaN, NaN,1.027,NaN,NaN, NaN, NaN
20060203,230238,2250,32.724700,-117.312800,NaN,20.950,29.890,42.450,  NaN,NaN,0.491, NaN, NaN,24.500, NaN,   NaN,14.10,1015.15,90.90,NaN,330.0,NaN,4.0,NaN,293.9,NaN,7.8,NaN,NaN,0.491,NaN,1.0,NaN,NaN,NaN,2,9.0,230235,   NaN,359.3,     NaN,      NaN,NaN,11.8,NaN, NaN,1.026,NaN,NaN, NaN, NaN
20060203,230308,2280,32.726000,-117.312800,NaN,20.950,29.900,42.460,  NaN,NaN,0.484, NaN, NaN,24.400, NaN,   NaN,14.10,1015.07,90.80,NaN,332.0,NaN,3.8,NaN,298.8,NaN,7.5,NaN,NaN,0.484,NaN,1.0,NaN,NaN,NaN,2,9.0,230305,   NaN,1.2,     NaN,      NaN,NaN,11.5,NaN, NaN,1.026,NaN,NaN, NaN, NaN
20060203,230338,2310,32.727200,-117.312800,NaN,20.950,29.890,42.450,  NaN,NaN,0.487, NaN, NaN,24.300, NaN,   NaN,14.10,1015.12,90.90,NaN,330.0,NaN,3.9,NaN,291.6,NaN,7.6,NaN,NaN,0.487,NaN,3.0,NaN,NaN,NaN,2,9.0,230335,   NaN,0.7,     NaN,      NaN,NaN,11.7,NaN, NaN,1.027,NaN,NaN, NaN, NaN
20060203,230408,2340,32.728500,-117.312800,NaN,20.950,29.900,42.450,  NaN,NaN,0.487, NaN, NaN,24.400, NaN,   NaN,14.10,1015.06,90.90,NaN,333.0,NaN,3.5,NaN,299.9,NaN,6.7,NaN,NaN,0.487,NaN,2.0,NaN,NaN,NaN,2,9.0,230405,   NaN,358.8,     NaN,      NaN,NaN,11.7,NaN, NaN,1.025,NaN,NaN, NaN, NaN
20060203,230438,2370,32.729700,-117.312800,NaN,20.930,29.910,42.450,  NaN,NaN,0.483, NaN, NaN,24.400, NaN,   NaN,14.10,1015.09,91.10,NaN,330.0,NaN,4.5,NaN,298.1,NaN,8.8,NaN,NaN,0.483,NaN,359.0,NaN,NaN,NaN,2,9.0,230435,   NaN,359.1,     NaN,      NaN,NaN,11.6,NaN, NaN,1.027,NaN,NaN, NaN, NaN
20060203,230508,2400,32.731000,-117.312700,NaN,20.930,29.910,42.450,  NaN,NaN,0.493, NaN, NaN,24.400, NaN,   NaN,14.10,1015.14,90.80,NaN,327.0,NaN,4.1,NaN,293.5,NaN,8.1,NaN,NaN,0.493,NaN,0.0,NaN,NaN,NaN,2,9.0,230505,   NaN,359.7,     NaN,      NaN,NaN,11.4,NaN, NaN,1.029,NaN,NaN, NaN, NaN
20060203,230538,2430,32.732300,-117.312700,NaN,20.920,29.910,42.450,  NaN,NaN,0.491, NaN, NaN,24.400, NaN,   NaN,14.10,1015.24,91.20,NaN,324.0,NaN,4.6,NaN,286.2,NaN,8.9,NaN,NaN,0.491,NaN,3.0,NaN,NaN,NaN,2,9.0,230535,   NaN,0.5,     NaN,      NaN,NaN,11.7,NaN, NaN,1.026,NaN,NaN, NaN, NaN